Flag for Germany Weather past 2 weeks in Frankenthal (Pfalz), Rhineland-Palatinate, Germany

Now
82 °F

Sunny.


Feels Like: 85 °F
Forecast: 66 / 84 °F
Wind: 3 mph from North

Location: Baden Wurttemberg - Neuostheim

Current Time: Jul 5, 2015 at 10:00:47 AM

Latest Report: Jul 5, 2015 at 9:20 AM


Visibility: 10 mi

Pressure: 30.04 "Hg

Humidity: 58%

Dew point: 66 °F

Location of Frankenthal (Pfalz)Location

Historic Weather in Frankenthal (Pfalz) — Graph

°F

Frankenthal (Pfalz) temperature yesterday

Maximum temperature yesterday: 100 °F (at 6:20 PM)
Minimum temperature yesterday: 75 °F (at 6:20 AM)
Average temperature yesterday: 91 °F

Past Weeks' High & Low Weather Summary

 TemperatureHumidityPressure
High100 °F (Jul 4, 6:20 PM)100% (Jun 22, 5:50 AM)30.21 "Hg (Jun 22, 5:50 AM)
Low50 °F (Jun 23, 5:20 AM)24% (Jul 1, 2:50 PM)29.74 "Hg (Jun 22, 9:20 PM)
Average73 °F55%30.09 "Hg
* Reported Jun 20 8:20 AM — Jul 5 8:50 AM, Frankenthal (Pfalz), Weather by CustomWeather, © 2015

Note: Actual official high and low records may vary slightly from our data, if they occured in-between our weather recording intervals... More about our weather records

Advertising

Frankenthal (Pfalz) weather history for previous 24 hours

 ConditionsComfort  
Time TempWeatherWind HumidityBarometerVisibility
8:50 AM
Sun, Jul 5
82 °FSunny.6 mph58%30.01 "Hg10 mi
8:20 AM82 °FSunny.2 mph55%30.04 "Hg10 mi
7:50 AM81 °FSunny.2 mph58%30.04 "Hg10 mi
9:20 PM
Sat, Jul 4
91 °FSunny.5 mph36%30.07 "Hg10 mi
8:50 PM93 °FSunny.13 mph32%30.07 "Hg10 mi
8:20 PM97 °FSunny.14 mph27%30.07 "Hg10 mi
7:50 PM99 °FPassing clouds.6 mph24%30.07 "HgN/A
7:20 PM97 °FPassing clouds.8 mph25%30.07 "HgN/A
6:50 PM99 °FPassing clouds.5 mph25%30.07 "HgN/A
6:20 PM100 °FSunny.3 mph24%30.04 "Hg10 mi
5:50 PM99 °FPassing clouds.5 mph25%30.07 "HgN/A
5:20 PM99 °FPassing clouds.6 mph31%30.07 "HgN/A
4:50 PM99 °FPassing clouds.8 mph31%30.07 "HgN/A
4:20 PM99 °FPassing clouds.6 mph33%30.07 "HgN/A
3:50 PM99 °FPassing clouds.7 mph33%30.07 "HgN/A
3:20 PM97 °FSunny.7 mph32%30.07 "Hg10 mi
2:50 PM97 °FPassing clouds.7 mph32%30.07 "HgN/A
2:20 PM95 °FPassing clouds.8 mph34%30.09 "HgN/A
1:50 PM95 °FPassing clouds.8 mph34%30.09 "HgN/A
1:20 PM95 °FPassing clouds.7 mph36%30.09 "HgN/A
12:50 PM91 °FHot.8 mph34%30.09 "HgN/A
12:20 PM91 °FPassing clouds.7 mph38%30.09 "HgN/A
11:50 AM90 °FPassing clouds.7 mph41%30.09 "HgN/A
11:20 AM88 °FPassing clouds.7 mph46%30.12 "HgN/A
10:50 AM88 °FPassing clouds.8 mph46%30.12 "HgN/A
10:20 AM88 °FPassing clouds.8 mph43%30.12 "HgN/A
Weather by CustomWeather, © 2015

See weather overviewHow to use our weather pages